User: anonymous   Login
Location: Fort Wayne
(41.1310°N, 85.1290°W)
Time: 13:04:40
(UTC-04:00)
Language:

SL-08 RB Rocket - Orbit

View from above orbital plane
View from above orbital plane
View from above satellite
View from above satellite

Ground track
Ground track

The orbit data is extracted from the following two-line orbital elements,

1 26387U 00033D   18115.62090258  .00000102  00000-0  25775-4 0  9993
2 26387  97.9261 176.1685 0027740  64.7662  96.2783 14.68379916953722
Epoch (UTC): 25 April 2018 14:54:05
Eccentricity: 0.0027740
inclination: 97.9261°
perigee height: 647 km
apogee height: 686 km
right ascension of ascending node: 176.1685°
argument of perigee: 64.7662°
revolutions per day: 14.68379916
mean anomaly at epoch: 96.2783°
orbit number at epoch: 95372

The dashed part of the orbit path shows where the satellite is in the earth's shadow,  

DLR